Scottsdale, AZ

1:12 AM MST on June 25, 2017 (GMT -0700)
Scottsdale

Weather History for KSDL - August, 2014

Change the Weather History Date:

Wednesday, August 27, 2014

  Actual Average Record
Temperature  
Mean Temperature 90 °F -  
Max Temperature 99 °F 98 °F 109 °F (2005)
Min Temperature 80 °F 78 °F 73 °F (2002)
Cooling Degree Days 24    
Growing Degree Days 40 (Base 50)    
Moisture  
Dew Point 59 °F    
Average Humidity 37    
Maximum Humidity 51    
Minimum Humidity 23    
Precipitation  
Precipitation 0.00 in - - ()
Sea Level Pressure  
Sea Level Pressure 29.92 in    
Wind  
Wind Speed 2 mph (West)    
Max Wind Speed 8 mph    
Max Gust Speed -    
Visibility 10 miles    
Events Thunderstorm    
Averages and records for this station are not official NWS values.
T = Trace of Precipitation, MM = Missing Value Source: NWS Daily Summary

Daily Weather History Graph

Daily Weather History Graph

Search for Another Location

Airport or City:

Trip Planner

Search our weather history database for the weather conditions in past years. The results will help you decide how hot, cold, wet, or windy it might be!

Date:

Astronomy

Aug. 27, 2014 Rise Set
Actual Time 5:58 AM MST 6:59 PM MST
Civil Twilight 5:32 AM MST 7:25 PM MST
Nautical Twilight 5:02 AM MST 7:55 PM MST
Astronomical Twilight 4:30 AM MST 8:26 PM MST
Moon 7:49 AM MST (8/27) 8:02 PM MST (8/27)
Length of Visible Light 13h 52m
Length of Day
13h 01m
Waxing Crescent, 4% of the Moon is Illuminated
Aug 27
Waxing Crescent
Sep 2
First Quarter
Sep 8
Full
Sep 15
Last Quarter
Sep 23
New

Hourly Weather History & Observations

Time (MST) Temp. Heat Index Dew Point Humidity Pressure Visibility Wind Dir Wind Speed Gust Speed Precip Events Conditions
12:53 AM 84.9 °F 84.4 °F 59.0 °F 41% 29.91 in 10.0 mi Calm Calm - N/A   Clear
1:53 AM 84.0 °F 84.0 °F 60.1 °F 44% 29.91 in 10.0 mi SSW 4.6 mph - N/A   Clear
2:53 AM 82.9 °F 83.2 °F 60.1 °F 46% 29.91 in 10.0 mi Calm Calm - N/A   Clear
3:53 AM 82.0 °F 82.4 °F 60.1 °F 47% 29.92 in 10.0 mi Calm Calm - N/A   Clear
4:53 AM 82.0 °F 82.7 °F 61.0 °F 49% 29.93 in 10.0 mi Calm Calm - N/A   Scattered Clouds
5:28 AM 80.6 °F 81.5 °F 60.8 °F 51% 30.02 in 10.0 mi Calm Calm - N/A Thunderstorm Clear
5:48 AM 82.4 °F 82.9 °F 60.8 °F 48% 30.02 in 10.0 mi Calm Calm - N/A   Partly Cloudy
5:53 AM 82.0 °F 82.7 °F 61.0 °F 49% 29.94 in 10.0 mi Calm Calm - N/A   Partly Cloudy
6:53 AM 82.9 °F 83.2 °F 60.1 °F 46% 29.97 in 10.0 mi Calm Calm - N/A   Partly Cloudy
8:53 AM 87.1 °F 87.0 °F 61.0 °F 41% 29.98 in 10.0 mi Calm Calm - N/A   Clear
9:53 AM 89.1 °F 89.0 °F 61.0 °F 39% 29.99 in 10.0 mi Variable 3.5 mph - N/A   Clear
10:53 AM 90.0 °F 90.0 °F 61.0 °F 38% 29.98 in 10.0 mi Variable 3.5 mph - N/A   Clear
12:53 PM 95.0 °F 94.8 °F 60.1 °F 31% 29.95 in 10.0 mi Calm Calm - N/A   Clear
1:53 PM 97.0 °F 96.9 °F 60.1 °F 29% 29.92 in 10.0 mi Variable 5.8 mph - N/A   Clear
2:53 PM 97.0 °F 96.1 °F 57.9 °F 27% 29.89 in 10.0 mi Variable 3.5 mph - N/A   Partly Cloudy
3:53 PM 97.0 °F 95.7 °F 57.0 °F 26% 29.87 in 10.0 mi Calm Calm - N/A   Clear
4:53 PM 99.0 °F 97.3 °F 55.0 °F 23% 29.85 in 10.0 mi WNW 5.8 mph - N/A   Clear
5:53 PM 98.1 °F 96.8 °F 57.0 °F 25% 29.84 in 10.0 mi West 8.1 mph - N/A   Clear
6:53 PM 96.1 °F 95.2 °F 57.9 °F 28% 29.86 in 10.0 mi WSW 5.8 mph - N/A   Clear
7:53 PM 95.0 °F 93.7 °F 57.0 °F 28% 29.86 in 10.0 mi WSW 3.5 mph - N/A   Clear
8:53 PM 93.9 °F 93.2 °F 59.0 °F 31% 29.88 in 10.0 mi Calm Calm - N/A   Clear
9:53 PM 91.9 °F 91.5 °F 60.1 °F 34% 29.88 in 10.0 mi ENE 3.5 mph - N/A   Clear
10:53 PM 91.0 °F 90.0 °F 57.9 °F 33% 29.88 in 10.0 mi NNE 4.6 mph - N/A   Clear
11:53 PM 88.0 °F 87.9 °F 61.0 °F 40% 29.88 in 10.0 mi Calm Calm - N/A   Clear